Regional Weather Roundup
Issued by NWS

Home | Current Version | Previous Version | Text Only | Print | Product List | Glossary Off
Versions: 1 2 3 4 5 6 7 8 9 10 11 12 13 14 15 16 17 18 19 20 21 22 23 24 25 26 27 28 29 30 31 32 33 34 35 36 37 38 39 40 41 42 43 44 45 46 47 48 49 50

000
ASUS43 KMKX 230221
RWRWI

WISCONSIN REGIONAL WEATHER ROUNDUP
NATIONAL WEATHER SERVICE MILWAUKEE/SULLIVAN WI
900 PM CDT FRI AUG 22 2014

NOTE: "FAIR" INDICATES FEW OR NO CLOUDS BELOW 12,000 FEET WITH NO
SIGNIFICANT WEATHER AND/OR OBSTRUCTIONS TO VISIBILITY.

WIZ001-002-006>008-014>016-023>028-230300-
NORTHWEST WISCONSIN

CITY           SKY/WX    TMP DP  RH WIND       PRES   REMARKS
SUPERIOR ARPT  CLOUDY    61  60  97 NE6       30.05R
ASHLAND        CLOUDY    64  61  90 NE3       30.04S
HAYWARD        CLOUDY    67  65  93 NE7       30.04R
SIREN          CLOUDY    69  65  89 NE5       30.03S
RICE LAKE      CLOUDY    71  68  91 CALM      30.04R
LADYSMITH      CLOUDY    72  69  92 N5        30.04R
EAU CLAIRE     PTCLDY    73  70  90 NW3       29.99R
MENOMONIE      MOCLDY    73  68  83 NW5       30.02R
NEW RICHMOND   CLOUDY    72  69  91 CALM      30.02R
OSCEOLA        CLOUDY    72  71  98 N3        30.04R
$$

WIZ003>005-009-010-017-018-230300-
NORTH CENTRAL WISCONSIN

CITY           SKY/WX    TMP DP  RH WIND       PRES   REMARKS
WOODRUFF       CLOUDY    72  69  90 N5        30.03S
RHINELANDER    FOG       69  69 100 CALM      30.03S VSB 1
EAGLE RIVER    CLOUDY    69  69 100 CALM      30.03R FOG
LAND O LAKES   FOG       69  69 100 CALM      30.04R VSB 1/2
PHILLIPS       CLOUDY    68  67  97 N5        30.03R
TOMAHAWK       CLOUDY    68  66  95 CALM      30.03R FOG
MEDFORD        MOCLDY    69  69  99 NE3       30.02R FOG
MERRILL        CLOUDY    69  69 100 CALM      30.00S FOG
$$

WIZ029-030-035-036-043>047-230300-
CENTRAL WISCONSIN

CITY           SKY/WX    TMP DP  RH WIND       PRES   REMARKS
WAUSAU         MOCLDY    74  71  91 NE6       29.99R
MOSINEE        PTCLDY    73  73 100 NE7       30.00  FOG
MARSHFIELD     CLEAR     73  69  87 N6        29.99R
STEVENS POINT  PTCLDY    75  70  84 NE6       29.99R
WAUPACA        MOCLDY    76  74  93 E8        29.98R
WAUTOMA        CLEAR     76  73  90 NE5       29.98R
WISC RAPIDS    MOCLDY    76  74  93 CALM      29.98R
CAMP DOUGLAS   FOG       72  72 100 W6        29.98R VSB 1/2
$$

WIZ011>013-019>022-031-037>040-048>050-230300-
NORTHEAST WISCONSIN

CITY           SKY/WX    TMP DP  RH WIND       PRES   REMARKS
ANTIGO         CLOUDY    70  70  99 E5        30.03R FOG
STURGEON BAY   CLOUDY    70  66  88 E5        30.02R
GREEN BAY      MOCLDY    72  70  93 E7        29.99R
MANITOWOC      FOG       69  68  96 E5        30.00R VSB 1/2
APPLETON       MOCLDY    73  68  83 SE8       29.99R
CLINTONVILLE   CLOUDY    73  72  94 SE6       29.99R
OSHKOSH        PTCLDY    75  71  87 SE8       29.97R
$$

WIZ032>034-041-042-053>061-230300-
SOUTHWEST WISCONSIN

CITY           SKY/WX    TMP DP  RH WIND       PRES   REMARKS
LA CROSSE      PTCLDY    79  73  82 NW5       29.96R HX  82
SPARTA         CLEAR     76  73  88 CALM      29.98R
VIROQUA        FAIR      75  75 100 CALM      30.00R
BOSCOBEL       MOCLDY    80  76  87 CALM      29.95R HX  86
PRAIRIE DU CHI PTCLDY    80  75  84 CALM      29.95R HX  85
PLATTEVILLE    FAIR      79  77  93 CALM      29.99R HX  83
$$

WIZ056-057-062-063-064-067-068-230300-
SOUTH CENTRAL WISCONSIN

CITY           SKY/WX    TMP DP  RH WIND       PRES   REMARKS
BARABOO/DELLS  PTCLDY    78  73  85 CALM      29.96R HX  80
LONE ROCK      CLEAR     82  75  79 CALM      29.95R HX  89
WATERTOWN      CLEAR     75  73  92 E7        29.98R
MADISON        PTCLDY    78  73  84 CALM      29.96R HX  81
MIDDLETON      MOCLDY    78  77  98 CALM      29.97R HX  80
MONROE         PTCLDY    77  73  88 SW7       29.98R
JANESVILLE     PTCLDY    79  73  83 SW5       29.96R HX  82
$$

WIZ051-052-058>065-066-070>072-230300-
SOUTHEAST WISCONSIN

CITY           SKY/WX    TMP DP  RH WIND       PRES   REMARKS
MILWAUKEE      FOG       70  69  97 CALM      29.99R VSB 1/2
WAUKESHA       PTCLDY    70  68  94 E5        30.00R
MILWAUKEE/TIMM CLOUDY    70  66  88 CALM      29.99R FOG
RACINE         FOG       71  70  96 CALM      30.00R VSB 1/2
BURLINGTON     CLOUDY    72  71  96 SE3       29.99R FOG
KENOSHA        CLOUDY    74  72  93 E6        29.99R
FOND DU LAC    CLEAR     75  69  81 SE9       29.98R
SHEBOYGAN      FOG       68  67  96 E5        30.00R VSB 1/4
WEST BEND      FOG       68  64  88 E3        30.00R VSB 3/4
JUNEAU         CLEAR     74  46  35 SE7       29.99R
$$

LSZ147-162-230300-
LAKE SUPERIOR

STATION/POSITION TIME  TEMP    WIND        PRES    WAVE
                       AIR SEA DIR/SP/G            HT/PER
                 (UTC) (F)     (DEG/KT/KT) (MB)    (FT/S)
W MID LAKE BUOY  0150   58 59   20/ 12/ 14 1016.8R   2/ 4
DEVILS ISLAND    0200   61      50/  7/  8 1017.4R
PORT WING        0140   62     350/  5/  6 1017.3S
SAXON HARBOR     0100   62        CALM     1016.9S
$$

LMZ867-665-643>646-230300-
LAKE MICHIGAN

STATION/POSITION TIME  TEMP    WIND        PRES    WAVE
                       AIR SEA DIR/SP/G            HT/PER
                 (UTC) (F)     (DEG/KT/KT) (MB)    (FT/S)
N MID LAKE BUOY  0150   68 66   60/  6/  6 1015.7R   0
NORTHPORT PIER   0100   67     130/  2/  3 1015.9S
SISTER BAY       0141   67     120/  7/ 10   N/A
ALGOMA LAKESHORE 0053           80/  6/  8   N/A
KEWAUNEE LAKESHO 0200   67      40/  2/  2 1015.1R
SHEBOYGAN LAKESH 0200   67 65   30/  2/  2 1015.9R
ATWATER BUOY     0200   69      90/  4/  4 1016.6R
MILWAUKEE LAKESH 0200   69      90/  3/  4   N/A
S MID LAKE BUOY  0150   71 71   20/  4/  4 1014.9R   0
KENOSHA   LAKESH 0200   72      CALM  /  1 1014.9R
$$

TC  - TEMPERATURE IN CELSIUS
VSB - VISIBILITY IN STATUTE MILES
WCI - WIND CHILL INDEX
HX  - HEAT INDEX




USA.gov is the U.S. government's official web portal to all federal, state and local government web resources and services.